Current Conditions
Clear
Conditions



Rainfall
0.00 (mm) - 0.00 (in)
Pressure
1020.92 (hPa) - 30.15 (inHG)
Visibility

10.0 (km) - 6.2 (miles)
   Temperature
1  °C
34°F
0  °C
Dewpoint
93  %
 Humidity
   Wind Speed
0.9  m/s
2  mph
3  km/h
2  kts
   Wind Direction
 160°
South South
East
   Airport Data
ESMX
Location Växjö Kronoberg 15 km (9.32 mi)
Metar :ESMX 070320Z AUTO 16002KT 9999 NCD 01/00 Q1021
Tue 7th April 04:20 am
   Raw Metar Info
Raw METAR is the most common format in the world for the transmission of observational weather data. It is highly standardized through the International Civil Aviation Organization (ICAO), which allows it to be understood throughout most of the world.
   API Info
Data Provided by
https://www.checkwx.com/weather/ESMX
   © Info
CSS/SVG/PHP scripts were developed by weather34.com for use in the weather34 template © 2015-2020

Guide Info provided by Metar-Wikipedia